• In Russia
  • List of Countries
  • For 7 days
  • Water Temperature
  • Weather Map
  • Weather Widgets
  • user-avatar
    Login

    Hourly Weather Asadabad

    Today, 23 August, Friday

    Time Temperature Precipitation Wind Pressure Humidity
    00:00 +26°C° 0 mm 1 mps 656 mmHg 68%
    01:00 +26°C° 0 mm 1 mps 656 mmHg 69%
    02:00 +26°C° 0 mm 1 mps 656 mmHg 71%
    03:00 +25°C° 0.6 mm 1 mps 656 mmHg 71%
    04:00 +25°C° 0.6 mm 1 mps 656 mmHg 72%
    05:00 +23°C° 0 mm 0 mps 656 mmHg 76%
    06:00 +23°C° 0.3 mm 0 mps 656 mmHg 71%
    07:00 +24°C° 0.3 mm 0 mps 657 mmHg 66%
    08:00 +25°C° 0.3 mm 0 mps 657 mmHg 61%
    09:00 +28°C° 0.3 mm 1 mps 657 mmHg 58%
    10:00 +29°C° 0.3 mm 1 mps 657 mmHg 55%
    11:00 +30°C° 0.3 mm 2 mps 657 mmHg 51%
    12:00 +31°C° 0.2 mm 2 mps 657 mmHg 49%
    13:00 +31°C° 0.2 mm 2 mps 657 mmHg 46%
    14:00 +32°C° 0.2 mm 2 mps 656 mmHg 44%
    15:00 +32°C° 0.2 mm 2 mps 656 mmHg 43%
    16:00 +32°C° 0.2 mm 2 mps 656 mmHg 43%
    17:00 +32°C° 0.2 mm 2 mps 656 mmHg 43%
    18:00 +31°C° 0.5 mm 2 mps 656 mmHg 49%
    19:00 +30°C° 0.5 mm 1 mps 656 mmHg 55%
    20:00 +29°C° 0.5 mm 1 mps 656 mmHg 61%
    21:00 +28°C° 0.4 mm 1 mps 656 mmHg 63%
    22:00 +28°C° 0.4 mm 1 mps 656 mmHg 65%
    23:00 +27°C° 0.4 mm 1 mps 656 mmHg 67%

    Tomorrow, 24 August, Saturday

    Time Temperature Precipitation Wind Pressure Humidity
    00:00 +27°C° 0.5 mm 1 mps 656 mmHg 67%
    01:00 +26°C° 0.5 mm 1 mps 656 mmHg 68%
    02:00 +26°C° 0.5 mm 1 mps 655 mmHg 69%
    03:00 +26°C° 0.5 mm 1 mps 655 mmHg 69%
    04:00 +25°C° 0.5 mm 1 mps 655 mmHg 70%
    05:00 +25°C° 0.5 mm 1 mps 655 mmHg 70%
    06:00 +26°C° 0.3 mm 1 mps 656 mmHg 65%
    07:00 +25°C° 0.3 mm 0 mps 656 mmHg 59%
    08:00 +26°C° 0.3 mm 0 mps 657 mmHg 54%
    09:00 +29°C° 0.1 mm 1 mps 657 mmHg 52%
    10:00 +30°C° 0.1 mm 1 mps 657 mmHg 49%
    11:00 +31°C° 0.1 mm 2 mps 657 mmHg 47%
    12:00 +32°C° 0.1 mm 2 mps 657 mmHg 44%
    13:00 +32°C° 0.1 mm 2 mps 656 mmHg 41%
    14:00 +34°C° 0.1 mm 2 mps 656 mmHg 38%
    15:00 +34°C° 0.2 mm 2 mps 656 mmHg 38%
    16:00 +34°C° 0.2 mm 2 mps 656 mmHg 38%
    17:00 +34°C° 0.2 mm 2 mps 656 mmHg 38%
    18:00 +32°C° 0.3 mm 2 mps 656 mmHg 45%
    19:00 +30°C° 0.3 mm 1 mps 656 mmHg 52%
    20:00 +29°C° 0.3 mm 1 mps 655 mmHg 58%
    21:00 +28°C° 0.4 mm 1 mps 655 mmHg 60%
    22:00 +28°C° 0.4 mm 1 mps 655 mmHg 62%
    23:00 +27°C° 0.4 mm 1 mps 655 mmHg 63%

    Day after tomorrow, 25 August, Sunday

    Time Temperature Precipitation Wind Pressure Humidity
    00:00 +27°C° 0.3 mm 1 mps 655 mmHg 64%
    01:00 +26°C° 0.3 mm 1 mps 655 mmHg 64%
    02:00 +26°C° 0.3 mm 1 mps 655 mmHg 65%
    03:00 +26°C° 0.2 mm 1 mps 655 mmHg 64%
    04:00 +26°C° 0.2 mm 1 mps 655 mmHg 62%
    05:00 +25°C° 0.2 mm 1 mps 655 mmHg 61%
    06:00 +27°C° 0.2 mm 1 mps 655 mmHg 56%
    07:00 +28°C° 0.2 mm 1 mps 655 mmHg 51%
    08:00 +27°C° 0.2 mm 0 mps 656 mmHg 46%
    09:00 +29°C° 0 mm 1 mps 656 mmHg 46%
    10:00 +30°C° 0 mm 1 mps 656 mmHg 45%
    11:00 +31°C° 0 mm 2 mps 656 mmHg 44%
    12:00 +32°C° 0 mm 2 mps 656 mmHg 42%
    13:00 +34°C° 0 mm 2 mps 656 mmHg 40%
    14:00 +34°C° 0 mm 3 mps 656 mmHg 38%
    15:00 +34°C° 0.2 mm 3 mps 656 mmHg 40%
    16:00 +34°C° 0.2 mm 3 mps 656 mmHg 41%
    17:00 +34°C° 0.2 mm 3 mps 656 mmHg 42%
    18:00 +31°C° 0.5 mm 2 mps 656 mmHg 49%
    19:00 +30°C° 0.5 mm 2 mps 656 mmHg 56%
    20:00 +29°C° 0.5 mm 1 mps 656 mmHg 63%
    21:00 +28°C° 0.2 mm 1 mps 656 mmHg 63%
    22:00 +28°C° 0.2 mm 1 mps 656 mmHg 63%
    23:00 +28°C° 0.2 mm 1 mps 656 mmHg 63%

    26 August, Monday

    Time Temperature Precipitation Wind Pressure Humidity
    00:00 +27°C° 0.3 mm 1 mps 656 mmHg 64%
    01:00 +27°C° 0.3 mm 1 mps 655 mmHg 65%
    02:00 +26°C° 0.3 mm 1 mps 655 mmHg 66%
    03:00 +26°C° 0.6 mm 1 mps 655 mmHg 68%
    04:00 +25°C° 0.6 mm 1 mps 655 mmHg 69%
    05:00 +25°C° 0.6 mm 1 mps 655 mmHg 71%
    06:00 +26°C° 0.1 mm 1 mps 655 mmHg 67%
    07:00 +27°C° 0.1 mm 1 mps 656 mmHg 63%
    08:00 +28°C° 0.1 mm 1 mps 656 mmHg 59%
    09:00 +29°C° 0.1 mm 1 mps 656 mmHg 56%
    10:00 +30°C° 0.1 mm 2 mps 656 mmHg 54%
    11:00 +31°C° 0.1 mm 2 mps 657 mmHg 52%
    12:00 +31°C° 0.1 mm 2 mps 657 mmHg 50%
    13:00 +33°C° 0.1 mm 3 mps 657 mmHg 48%
    14:00 +33°C° 0.1 mm 3 mps 656 mmHg 46%
    15:00 +33°C° 0.4 mm 3 mps 656 mmHg 49%
    16:00 +32°C° 0.4 mm 2 mps 656 mmHg 51%
    17:00 +31°C° 0.4 mm 2 mps 656 mmHg 53%
    18:00 +30°C° 0.8 mm 2 mps 655 mmHg 59%
    19:00 +29°C° 0.8 mm 1 mps 655 mmHg 65%
    20:00 +28°C° 0.8 mm 1 mps 655 mmHg 71%
    21:00 +28°C° 0.2 mm 1 mps 655 mmHg 72%
    22:00 +25°C° 0.2 mm 0 mps 656 mmHg 73%
    23:00 +25°C° 0.2 mm 0 mps 656 mmHg 74%

    27 August, Tuesday

    Time Temperature Precipitation Wind Pressure Humidity
    00:00 +25°C° 0.2 mm 0 mps 655 mmHg 75%
    01:00 +24°C° 0.2 mm 0 mps 655 mmHg 75%
    02:00 +26°C° 0.2 mm 1 mps 655 mmHg 76%
    03:00 +26°C° 0.4 mm 1 mps 655 mmHg 75%
    04:00 +26°C° 0.4 mm 1 mps 655 mmHg 74%
    05:00 +25°C° 0.4 mm 1 mps 655 mmHg 73%
    06:00 +24°C° 0.6 mm 0 mps 655 mmHg 68%
    07:00 +25°C° 0.6 mm 0 mps 656 mmHg 63%
    08:00 +26°C° 0.6 mm 0 mps 656 mmHg 58%
    09:00 +29°C° 0 mm 1 mps 656 mmHg 57%
    10:00 +30°C° 0 mm 1 mps 657 mmHg 56%
    11:00 +31°C° 0 mm 2 mps 657 mmHg 54%
    12:00 +32°C° 0.2 mm 2 mps 657 mmHg 51%
    13:00 +32°C° 0.2 mm 2 mps 656 mmHg 48%
    14:00 +34°C° 0.2 mm 2 mps 656 mmHg 45%
    15:00 +34°C° 0.1 mm 2 mps 656 mmHg 45%
    16:00 +34°C° 0.1 mm 2 mps 656 mmHg 45%
    17:00 +34°C° 0.1 mm 2 mps 656 mmHg 44%
    18:00 +32°C° 0.3 mm 2 mps 656 mmHg 51%
    19:00 +30°C° 0.3 mm 1 mps 656 mmHg 58%
    20:00 +29°C° 0.3 mm 1 mps 656 mmHg 64%
    21:00 +29°C° 0.8 mm 1 mps 656 mmHg 67%
    22:00 +28°C° 0.8 mm 1 mps 656 mmHg 69%
    23:00 +27°C° 0.8 mm 1 mps 656 mmHg 71%

    28 August, Wednesday

    Time Temperature Precipitation Wind Pressure Humidity
    00:00 +27°C° 0.3 mm 1 mps 656 mmHg 70%
    01:00 +27°C° 0.3 mm 1 mps 656 mmHg 69%
    02:00 +26°C° 0.3 mm 1 mps 656 mmHg 69%
    03:00 +26°C° 0.5 mm 1 mps 656 mmHg 68%
    04:00 +26°C° 0.5 mm 1 mps 656 mmHg 68%
    05:00 +25°C° 0.5 mm 1 mps 656 mmHg 67%
    06:00 +26°C° 0.1 mm 1 mps 656 mmHg 62%
    07:00 +26°C° 0.1 mm 0 mps 657 mmHg 56%
    08:00 +27°C° 0.1 mm 0 mps 657 mmHg 51%
    09:00 +30°C° 0 mm 1 mps 657 mmHg 50%
    10:00 +31°C° 0 mm 1 mps 657 mmHg 50%
    11:00 +31°C° 0 mm 2 mps 657 mmHg 49%
    12:00 +32°C° 0 mm 2 mps 657 mmHg 47%
    13:00 +34°C° 0 mm 2 mps 657 mmHg 44%
    14:00 +35°C° 0 mm 2 mps 657 mmHg 42%
    15:00 +35°C° 0 mm 2 mps 657 mmHg 42%
    16:00 +35°C° 0 mm 2 mps 656 mmHg 42%
    17:00 +35°C° 0 mm 2 mps 656 mmHg 42%
    18:00 +32°C° 0.3 mm 2 mps 656 mmHg 50%
    19:00 +31°C° 0.3 mm 1 mps 656 mmHg 59%
    20:00 +29°C° 0.3 mm 1 mps 656 mmHg 67%
    21:00 +29°C° 0.2 mm 1 mps 656 mmHg 67%
    22:00 +28°C° 0.2 mm 1 mps 656 mmHg 68%
    23:00 +28°C° 0.2 mm 1 mps 656 mmHg 68%
    Show more